Japanese version Home page |
Updated on May 22, 2017 |
|
Orbital ElementsEpoch 2015 Oct. 25.0 TT = JDT 2457320.5 T 2015 Oct. 22.70981 TT MPCW q 2.7795854 (2000.0) P Q n 0.11996400 Peri. 278.84336 +0.94654950 -0.31974996 a 4.0716342 Node 99.81296 +0.31029243 +0.86665890 e 0.3173293 Incl. 2.47045 +0.08810585 +0.38296516 P 8.22 From 180 observations 1990 Sept. 24-2017 Jan. 27, mean residual 0".6. Nongravitational parameters A1 = +5.39, A2 = -0.2961.
|
Magnitudes Graphm1 = 13.5 + 5 log d + 10.0 log r
|
The orbital elements are published on M.P.E.C. 2017-E59.
|